Location: Mahannah Oil Field
(37.4664°N, 96.6003°W)
Time: 09:02:16
(UTC+00:00)

Courier 1B - Pass Details

Date: 28 January 2021
Orbit: 962 x 1209 km, 28.3° (Epoch: 02 March)

Event Time Altitude Azimuth Distance (km) Brightness Sun altitude
Rises 06:14:31 0° 255° (WSW) 3,786 - -69.9°
Reaches altitude 10° 06:17:27 10° 247° (WSW) 2,797 - -70.1°
Maximum altitude 06:23:35 38° 182° (S) 1,461 - -70.3°
Drops below altitude 10° 06:29:31 10° 116° (ESE) 2,695 - -70.5°
Sets 06:32:18 0° 109° (ESE) 3,633 - -70.6°
